Temperature
15 15 16 16 14 12 14 15 17 19 19 20 21 20 18 18 19 19 18 18 18 18 17 17 17 17 17 17 17 17 17 17 17 17 17 17 17 17 17 16 16 16 16 16 16 16 16 16 16
14 15 15 15 13 13 14 15 17 19 20 21 21 19 18 17 18 17 17 17 18 18 17 17 17 17 17 17 17 17 17 17 17 17 17 17 17 17 16 16 16 16 16 16 16 16 16 16 15
14 15 15 12 12 14 15 16 17 19 21 21 19 19 18 18 17 17 18 17 18 17 17 17 17 17 17 17 17 17 17 17 17 17 17 17 17 16 16 16 16 16 16 16 16 16 16 15 15
14 14 14 12 13 14 16 17 17 19 20 20 19 17 18 18 18 18 18 17 17 17 17 17 16 17 17 17 17 17 17 17 17 17 16 16 16 16 16 16 16 16 16 16 16 16 15 15 15
14 14 12 12 13 14 15 18 19 18 18 19 18 16 17 18 18 18 18 17 17 17 17 16 16 16 17 17 17 16 17 16 16 16 16 16 16 16 16 16 16 16 16 16 16 15 15 15 15
13 12 11 12 13 15 16 18 19 18 18 18 18 16 16 17 17 17 17 17 17 17 16 16 16 16 16 16 16 16 16 16 16 16 16 16 16 16 16 16 16 16 16 15 15 15 15 15 15
12 11 12 13 14 15 17 19 18 17 17 18 18 16 16 16 17 17 17 17 17 17 16 16 16 16 16 16 16 16 16 16 16 16 16 16 16 16 16 16 15 15 15 15 15 15 15 15 15
13 11 12 13 14 15 17 18 19 18 18 18 18 16 16 16 16 16 16 16 16 16 16 16 16 16 16 16 16 16 16 16 16 16 16 16 16 15 15 15 15 15 15 15 15 15 15 14 14
13 11 12 13 14 16 17 17 18 19 18 18 18 18 17 16 16 16 16 16 16 16 16 16 16 16 16 16 16 15 15 15 15 15 15 15 15 15 15 15 15 15 15 15 14 14 14 14 14
12 11 12 14 15 15 16 17 18 17 16 16 16 17 16 16 16 16 16 16 15 15 15 15 16 15 15 15 15 15 15 15 15 15 15 15 15 15 15 15 15 14 14 14 14 14 14 14 14
11 11 13 14 16 16 16 17 17 16 15 15 16 16 16 16 16 16 16 16 16 16 15 15 15 15 15 15 15 15 15 15 15 15 15 15 15 15 15 15 14 14 14 14 14 14 13 13 13
11 12 13 14 15 16 16 16 16 16 16 17 17 17 16 16 16 16 15 15 15 15 15 15 15 15 15 15 15 15 15 15 15 15 15 15 15 15 14 14 14 14 14 14 14 13 13 13 13
11 12 13 14 15 15 15 15 15 15 16 16 16 16 15 15 15 15 15 15 15 15 15 15 15 15 15 15 15 15 15 15 15 15 14 14 15 14 14 14 14 14 14 13 13 13 13 13 13
11 12 12 13 14 14 14 14 14 14 15 15 15 15 15 15 15 15 15 15 15 15 15 14 14 14 14 15 15 15 15 14 14 14 14 14 14 14 14 14 14 13 13 13 13 13 13 12 12
11 11 11 12 13 13 14 13 12 14 14 14 14 14 14 14 15 15 15 15 15 15 15 14 14 14 14 14 14 14 14 14 14 14 14 14 14 14 14 14 13 13 13 13 13 12 12 12 12
10 10 10 11 12 13 13 12 12 13 13 13 13 13 14 14 14 14 14 14 14 14 14 14 14 14 14 14 14 14 14 14 14 14 14 14 14 13 13 13 13 13 13 13 12 12 12 12 12
9 8 9 10 11 11 11 11 12 13 13 12 12 13 13 13 13 14 14 14 14 14 14 14 13 14 14 13 13 13 13 13 13 13 13 13 13 13 13 13 13 12 12 12 12 12 12 12 11
8 8 9 9 11 11 10 10 11 12 12 12 12 12 13 13 13 13 13 13 13 13 13 13 13 13 13 13 13 13 13 13 13 13 13 13 13 13 13 12 12 12 12 12 11 11 11 11 11
8 8 9 9 10 10 10 10 10 11 11 11 11 12 12 12 13 13 13 13 13 13 13 13 13 13 13 13 13 13 13 13 13 13 13 13 13 12 12 12 12 12 11 11 11 11 11 11 10
8 8 8 9 10 10 9 10 10 10 10 11 11 11 12 12 12 12 13 13 13 13 13 12 12 12 12 12 13 12 12 12 12 12 12 12 12 12 12 12 12 11 11 11 11 11 10 10 10
8 8 8 8 9 9 9 9 9 10 11 11 11 11 11 11 12 12 12 12 12 12 12 12 12 12 12 12 12 12 12 11 11 11 12 12 12 12 11 11 11 11 11 11 10 10 10 10 9
7 8 9 9 8 7 8 7 8 9 9 9 9 10 10 11 11 11 12 12 12 12 12 12 12 12 12 11 12 12 11 11 11 11 11 11 11 11 11 11 11 10 10 10 10 10 10 9 9
7 8 8 8 7 7 7 7 7 8 8 8 8 9 10 10 11 11 11 11 11 11 11 11 11 11 11 11 11 11 11 11 11 11 11 11 11 10 10 10 10 10 10 10 10 9 9 9 8
8 8 7 7 6 6 7 6 7 7 8 8 7 8 9 9 10 10 10 10 11 11 11 11 10 11 11 11 11 10 11 11 10 10 10 10 10 10 10 10 10 10 9 9 9 9 9 8 8
7 6 6 6 5 6 7 7 7 6 7 7 7 8 8 9 9 9 10 10 10 10 10 10 10 10 10 10 10 10 10 10 10 10 10 10 10 10 10 9 9 9 9 9 9 8 8 8 8
6 6 5 5 5 5 6 6 6 6 6 7 7 7 8 8 8 9 9 9 9 9 9 9 9 9 9 9 9 9 9 9 9 9 9 9 9 9 9 9 9 9 8 8 8 8 8 8 7
5 5 5 4 4 5 5 5 5 6 5 5 6 6 6 7 8 8 8 9 9 9 9 9 9 9 8 9 9 8 8 8 8 9 8 8 8 8 8 8 8 8 8 8 8 8 7 7 7
5 5 4 4 5 5 5 5 5 5 4 4 4 4 5 6 7 7 7 8 8 8 8 8 8 8 8 8 8 8 8 8 8 8 8 8 8 8 8 8 8 7 7 7 7 7 7 7 6
4 5 4 4 4 4 5 5 4 4 4 4 4 4 5 5 6 6 7 7 7 7 8 8 8 8 7 7 7 7 7 7 7 7 7 7 7 7 7 7 7 7 7 7 7 7 6 6 6
4 4 4 4 3 3 3 4 4 3 4 3 3 4 4 5 5 6 6 6 7 7 7 7 7 7 7 7 7 7 7 7 7 7 7 7 7 6 6 6 6 6 6 6 6 6 6 6 5
Wind_Speed
3 3 3 4 5 3 4 6 4 2 2 2 2 7 8 5 4 5 4 11 14 14 17 20 20 20 20 19 19 19 18 18 17 17 17 17 17 16 16 15 15 15 15 15 15 15 14 14 14
1 1 4 4 5 4 6 6 6 6 5 4 4 5 6 4 3 7 7 12 16 15 17 19 21 20 20 20 19 19 18 18 17 17 16 16 16 16 15 15 15 15 14 14 14 14 13 13 12
1 1 3 4 5 8 7 6 9 5 3 2 3 4 5 4 4 5 8 15 15 13 16 19 21 20 20 20 19 19 18 18 17 16 16 16 16 15 15 15 14 14 14 14 13 13 12 12 12
2 2 3 3 8 8 6 5 6 5 1 2 5 5 3 1 3 7 14 15 15 12 15 19 21 20 20 19 19 18 18 18 17 17 16 16 15 15 14 14 14 14 13 13 12 12 11 11 11
2 3 3 4 8 6 6 6 4 4 2 2 5 5 3 5 8 14 15 15 15 12 15 19 20 20 19 19 19 18 18 17 17 16 15 15 15 14 14 13 13 13 12 12 11 11 10 10 11
2 3 4 7 8 5 6 5 3 2 2 2 5 6 2 2 9 12 14 14 14 13 14 17 19 19 19 18 18 18 17 17 16 15 15 15 14 14 13 12 12 11 11 11 10 10 10 10 10
4 4 6 7 6 5 6 4 5 4 3 4 6 7 4 3 7 11 13 13 12 13 12 13 16 17 18 18 18 17 17 17 16 15 15 14 14 13 12 12 11 10 10 9 9 9 9 9 9
4 4 5 5 6 7 5 4 3 5 4 2 5 9 7 7 9 11 12 11 11 10 10 10 12 14 15 16 17 17 17 16 16 15 15 14 13 12 12 11 10 10 9 8 8 8 8 7 8
3 3 7 7 7 5 3 4 2 1 4 3 2 4 7 12 13 14 12 10 10 9 8 9 10 12 13 14 15 16 16 16 15 14 14 13 12 12 11 10 10 9 9 8 7 7 6 6 6
4 7 10 5 4 4 2 3 3 3 3 3 4 6 10 12 15 15 14 13 11 11 9 8 9 10 11 11 12 13 13 13 13 13 12 12 11 10 10 10 9 8 7 7 6 5 5 5 5
6 9 6 3 2 2 2 1 1 6 3 5 9 12 12 12 12 13 12 12 11 11 9 8 9 10 10 9 10 10 10 11 11 12 12 11 10 9 9 8 7 6 6 5 5 4 4 4 3
5 5 4 3 2 0 1 1 1 2 5 6 11 15 12 12 12 12 12 11 10 10 9 8 9 9 10 10 9 9 9 9 9 10 12 10 8 7 6 6 5 5 5 4 4 3 3 3 3
7 5 4 2 1 0 1 1 2 0 2 7 10 11 11 11 9 8 9 9 10 10 9 9 9 9 9 9 8 8 8 8 10 10 11 11 8 6 6 5 5 5 4 4 3 3 3 3 3
6 4 3 3 3 1 2 1 2 2 5 8 10 10 10 10 10 9 9 9 9 9 9 8 9 9 10 7 7 8 8 9 10 10 10 11 10 8 6 4 4 4 4 3 3 2 2 2 2
3 3 3 4 4 2 3 1 4 5 7 8 8 8 8 8 9 10 10 10 10 9 9 9 9 9 9 8 8 8 9 10 8 9 10 11 10 9 7 5 3 3 4 4 3 3 3 3 2
3 4 5 5 5 3 6 7 6 5 8 7 7 7 7 7 8 8 8 8 8 9 9 9 9 9 8 8 8 8 8 9 8 9 9 10 10 10 8 4 3 3 4 4 3 2 2 2 2
5 8 8 5 6 4 6 6 5 4 8 8 7 7 7 6 5 6 7 8 8 9 9 8 7 8 8 8 8 8 8 7 8 8 8 8 9 9 8 5 4 4 4 3 2 2 2 1 1
9 8 7 7 5 5 6 6 4 4 7 8 7 7 7 7 6 6 7 7 8 8 8 8 8 8 8 7 6 5 5 5 7 7 7 8 8 9 7 5 4 4 3 2 2 2 2 1 1
6 6 6 6 4 4 7 6 5 4 5 7 7 7 7 7 5 5 6 7 7 7 7 8 8 7 7 6 5 5 4 3 3 5 7 8 8 8 7 4 4 4 2 2 2 2 2 2 1
5 7 5 2 3 4 5 6 5 5 7 9 10 9 8 6 5 5 5 6 7 7 7 8 8 8 7 6 4 3 4 3 3 4 5 7 8 7 6 5 3 3 2 2 2 2 2 1 2
7 9 7 5 1 1 3 4 5 4 4 5 6 7 8 9 8 6 6 6 6 7 7 7 7 7 7 6 5 5 4 3 2 2 2 3 6 7 6 6 4 3 3 2 2 2 3 1 1
7 7 7 7 4 3 5 5 7 6 5 6 6 5 6 6 6 6 6 6 6 6 6 6 6 6 6 7 7 8 5 4 3 3 3 3 5 5 6 5 5 4 3 3 2 2 2 3 1
4 5 6 6 4 2 3 4 6 5 8 9 7 7 6 6 7 6 6 6 5 4 5 5 6 6 6 6 8 7 5 3 3 3 4 3 2 4 5 5 4 3 3 2 2 2 2 2 2
4 5 4 3 2 5 7 6 6 7 10 9 7 6 6 5 5 4 4 5 4 4 4 5 6 5 6 6 6 7 7 6 6 5 4 3 2 2 3 4 4 3 3 3 2 2 2 2 2
5 7 3 2 4 6 6 5 6 5 5 9 10 8 6 5 5 5 5 5 5 5 5 5 6 5 5 6 6 5 6 7 7 6 5 4 2 2 2 3 3 3 3 3 3 2 2 2 2
7 7 6 5 6 2 4 6 5 3 2 4 6 6 5 5 4 5 5 5 5 5 5 5 6 5 5 5 5 5 5 4 4 4 4 4 3 3 3 3 3 3 3 3 3 2 1 1 1
5 4 4 4 2 2 4 2 3 1 2 3 4 5 5 4 4 4 4 4 4 5 5 6 6 5 5 5 5 4 4 4 4 4 4 3 2 2 3 3 3 3 2 2 2 1 1 1 1
3 5 4 4 4 3 3 4 4 4 3 3 3 4 3 3 3 3 3 4 4 4 4 4 5 5 4 4 5 4 4 4 4 4 4 4 3 3 3 2 3 3 2 2 2 1 1 1 0
2 2 3 3 3 4 4 4 2 5 5 5 3 3 4 3 3 3 2 3 4 4 4 4 4 4 4 4 4 4 4 4 4 4 4 3 3 3 3 2 2 3 2 2 2 1 1 1 0
2 3 4 5 3 2 3 4 3 2 3 4 3 2 2 3 3 3 3 4 4 4 4 3 3 3 3 4 4 4 4 4 4 4 3 3 3 3 3 2 2 2 2 2 3 2 1 1 1
Wind_Direction
293 4 64 61 69 76 227 241 233 232 202 198 116 111 118 119 145 154 127 138 135 142 145 144 141 138 134 131 128 125 121 118 116 114 111 109 107 104 102 100 99 97 94 93 92 89 87 85 84
18 43 65 73 119 177 243 237 228 223 197 158 99 92 88 84 90 111 124 140 138 140 142 144 141 138 135 132 130 127 124 122 119 117 115 112 109 106 104 102 100 98 95 93 92 90 87 84 83
83 112 102 109 163 193 216 225 217 234 237 159 89 67 105 122 125 131 142 139 134 135 140 143 140 138 136 133 132 130 127 125 123 120 118 115 111 107 105 104 101 98 96 93 92 90 86 85 83
102 86 77 140 212 218 210 226 197 188 244 85 113 71 66 39 155 137 135 134 132 132 137 142 140 139 138 136 133 131 128 126 124 122 121 119 116 112 108 104 102 100 98 96 93 89 87 85 82
91 112 140 208 229 237 234 239 200 175 166 126 117 105 47 348 113 126 133 135 135 134 137 143 142 141 139 137 135 133 130 129 126 125 123 121 119 115 112 108 106 103 101 98 95 92 87 83 81
122 117 161 211 227 240 244 231 201 162 161 125 113 114 117 93 118 132 134 136 136 135 136 141 142 141 140 138 136 134 132 130 128 127 125 123 120 117 116 113 109 106 104 101 97 93 88 85 82
154 154 189 199 213 232 234 214 184 180 170 176 139 120 135 144 134 132 129 129 130 131 131 134 140 141 140 138 136 134 132 131 130 128 126 124 122 120 118 116 113 110 107 104 100 95 90 87 82
161 153 196 204 197 221 222 191 188 171 174 134 124 138 162 173 141 125 121 123 125 127 129 129 132 135 136 137 137 135 133 132 129 127 125 122 120 119 117 116 115 113 110 106 103 99 93 85 80
143 172 210 205 194 214 206 175 232 142 115 73 91 152 158 143 131 124 123 122 128 133 134 131 130 131 132 134 136 134 132 129 126 123 122 117 113 114 116 118 117 115 111 108 102 98 92 81 77
171 202 217 209 200 203 205 165 166 93 87 72 63 83 117 130 135 137 142 145 147 148 145 141 137 135 133 132 130 130 130 127 124 123 121 117 115 114 116 117 114 113 109 106 101 92 83 77 72
186 207 218 238 243 209 188 202 127 132 147 171 151 144 138 136 138 141 148 151 154 152 148 147 142 138 132 129 130 129 128 126 126 127 127 124 116 114 112 110 106 101 95 88 79 71 70 73 79
199 222 214 241 283 338 206 144 77 144 184 174 151 148 144 145 151 151 150 150 148 147 150 150 144 138 135 134 134 134 132 129 131 135 135 129 120 116 115 112 111 103 98 89 78 68 57 58 73
219 218 217 242 288 294 67 107 124 11 145 128 129 137 145 148 148 145 143 144 143 147 151 154 148 144 142 137 140 138 136 137 138 138 138 136 130 128 124 119 115 109 105 100 85 64 53 52 55
211 210 225 231 245 274 146 272 116 210 135 128 136 146 153 153 150 144 144 147 148 150 153 151 151 148 145 143 143 141 140 138 136 139 142 141 137 135 131 124 119 114 116 114 104 89 73 55 55
203 193 250 237 210 212 131 295 217 193 138 139 151 152 154 157 154 156 159 155 155 154 153 151 153 146 145 142 141 140 141 137 135 137 140 140 140 138 133 126 122 123 118 109 96 68 64 56 50
174 178 209 231 192 189 150 215 228 183 150 158 163 161 161 165 165 162 156 149 150 150 151 154 153 147 145 141 138 137 138 134 133 135 136 137 139 139 131 127 129 126 114 106 101 83 64 45 37
176 195 200 216 193 168 166 208 225 182 157 167 173 172 169 163 161 163 158 153 152 152 150 147 146 148 145 138 133 132 132 131 133 135 136 139 141 142 134 131 132 129 113 100 103 75 89 66 20
191 186 187 194 196 169 181 208 218 185 160 170 180 179 172 170 180 167 155 152 148 147 146 144 144 144 138 129 122 121 119 125 131 135 139 142 141 142 136 129 128 125 113 93 89 91 68 77 38
179 177 184 205 193 172 192 206 223 209 169 172 181 180 179 184 182 159 152 145 139 142 145 149 150 149 143 142 144 143 150 150 138 136 140 140 139 138 131 127 123 122 129 136 118 99 73 34 30
189 175 183 210 198 185 189 222 232 213 199 188 183 185 184 175 162 155 149 146 149 153 157 157 159 157 157 159 155 146 139 137 133 133 135 143 142 142 140 133 131 125 124 117 112 107 91 33 40
202 187 182 180 158 97 135 252 244 234 212 198 189 182 176 173 168 165 157 156 153 159 165 166 165 162 159 147 128 113 92 86 99 131 147 145 147 146 144 142 136 129 132 148 149 141 133 133 13
209 194 180 173 157 209 171 214 241 216 212 209 204 186 178 176 169 164 160 159 164 170 167 164 160 159 156 148 148 150 154 161 180 171 159 139 144 145 147 144 140 139 135 147 160 134 138 138 143
193 178 177 174 168 190 188 188 250 201 207 213 206 197 186 177 170 167 165 166 164 161 161 161 154 153 153 153 156 156 153 149 139 138 140 145 136 142 145 145 140 136 132 145 144 133 129 144 161
131 109 94 90 128 211 206 187 240 211 207 197 197 193 185 173 164 160 152 138 128 125 136 148 152 152 154 155 157 160 156 149 147 153 158 160 155 135 138 141 136 136 133 145 147 140 139 146 156
130 131 136 175 203 223 182 188 239 238 209 192 189 191 184 168 158 150 143 141 139 137 140 146 153 152 152 152 156 162 161 160 165 167 168 162 161 168 182 141 134 131 137 139 130 130 147 159 165
185 163 168 179 190 218 176 205 243 264 216 165 173 170 160 161 160 155 157 153 153 150 149 151 154 155 156 154 157 153 155 159 165 168 166 170 177 179 167 146 135 134 135 130 115 119 153 140 169
165 186 164 131 119 147 219 255 299 354 83 114 142 143 151 162 160 156 150 150 151 155 159 158 154 151 160 161 151 149 156 157 157 159 157 161 164 156 145 143 141 136 129 119 114 134 154 146 181
153 152 125 141 157 193 219 219 209 197 185 145 135 151 151 132 133 144 150 151 146 150 147 142 142 150 154 155 157 156 161 162 155 153 162 161 159 145 142 137 150 148 137 120 120 135 126 130 223
130 144 135 136 158 165 194 238 223 201 185 169 164 157 146 139 144 152 148 137 126 117 123 127 131 127 131 141 144 143 153 156 152 156 163 160 153 151 158 158 159 164 158 142 139 159 161 164 292
153 163 146 154 192 175 175 250 312 202 156 146 145 123 122 125 132 130 127 117 109 113 121 128 127 130 141 140 132 135 142 148 150 151 152 146 150 152 155 149 158 175 173 163 166 186 195 198 230
Height
1513 1514 1516 1519 1523 1532 1531 1522 1512 1508 1507 1506 1506 1506 1509 1513 1517 1523 1520 1521 1524 1527 1530 1533 1536 1538 1540 1542 1544 1545 1546 1548 1549 1550 1551 1552 1552 1553 1554 1554 1554 1555 1555 1555 1556 1556 1556 1556 1556
1512 1514 1517 1518 1526 1535 1529 1516 1510 1506 1504 1505 1506 1507 1509 1513 1514 1516 1518 1522 1525 1528 1530 1533 1536 1539 1541 1543 1544 1546 1547 1549 1550 1551 1552 1553 1554 1554 1555 1555 1555 1556 1556 1557 1557 1557 1557 1557 1557
1511 1513 1516 1518 1524 1525 1518 1508 1505 1502 1503 1504 1506 1508 1510 1513 1515 1516 1518 1522 1526 1528 1531 1534 1537 1539 1541 1543 1545 1547 1548 1550 1551 1552 1553 1554 1555 1555 1556 1556 1557 1557 1557 1558 1558 1558 1558 1558 1557
1510 1514 1515 1519 1518 1512 1507 1502 1501 1501 1502 1503 1505 1509 1512 1514 1515 1517 1519 1523 1526 1529 1532 1535 1537 1540 1542 1544 1546 1547 1549 1550 1552 1553 1554 1555 1555 1556 1557 1557 1558 1558 1558 1558 1558 1559 1559 1558 1558
1509 1511 1516 1518 1513 1507 1502 1499 1500 1500 1501 1502 1504 1509 1512 1514 1515 1518 1520 1523 1526 1529 1532 1535 1538 1540 1542 1544 1546 1548 1550 1551 1552 1554 1555 1556 1556 1557 1557 1558 1558 1559 1559 1559 1559 1559 1559 1559 1559
1507 1508 1516 1516 1509 1503 1499 1498 1499 1499 1501 1502 1504 1508 1513 1515 1516 1518 1521 1524 1527 1529 1533 1536 1538 1541 1543 1545 1547 1548 1550 1552 1553 1554 1555 1556 1557 1558 1558 1559 1559 1559 1559 1559 1559 1559 1559 1559 1559
1505 1507 1510 1508 1506 1503 1497 1497 1498 1498 1500 1502 1502 1508 1512 1515 1517 1519 1522 1524 1527 1530 1533 1536 1538 1541 1543 1545 1547 1549 1551 1552 1553 1555 1556 1557 1557 1558 1559 1559 1559 1560 1560 1560 1560 1560 1560 1559 1559
1501 1505 1505 1504 1502 1499 1494 1495 1496 1497 1499 1501 1502 1505 1510 1514 1517 1519 1522 1525 1528 1530 1533 1535 1538 1541 1543 1545 1547 1549 1551 1552 1554 1555 1556 1557 1558 1558 1559 1559 1560 1560 1560 1560 1560 1560 1560 1560 1560
1499 1505 1503 1499 1498 1495 1492 1493 1495 1496 1497 1499 1501 1503 1506 1511 1515 1518 1521 1524 1527 1530 1533 1535 1537 1540 1543 1545 1547 1549 1551 1552 1554 1555 1556 1557 1558 1558 1559 1559 1560 1560 1560 1560 1560 1560 1560 1560 1560
1496 1500 1495 1492 1492 1491 1491 1492 1493 1495 1496 1498 1500 1503 1507 1510 1513 1516 1519 1522 1525 1528 1531 1534 1537 1539 1542 1544 1546 1548 1550 1552 1553 1555 1556 1557 1558 1558 1559 1559 1560 1560 1560 1560 1560 1560 1560 1560 1560
1492 1493 1491 1490 1489 1490 1490 1491 1492 1493 1497 1497 1498 1501 1505 1509 1512 1515 1518 1521 1524 1527 1530 1533 1536 1538 1541 1543 1545 1547 1549 1551 1553 1554 1555 1556 1557 1558 1558 1559 1559 1560 1560 1560 1560 1560 1560 1560 1560
1490 1489 1489 1489 1489 1489 1490 1490 1492 1492 1494 1496 1497 1500 1504 1508 1511 1514 1517 1521 1524 1527 1529 1532 1535 1537 1540 1542 1544 1547 1548 1550 1552 1553 1554 1555 1556 1557 1558 1558 1559 1559 1559 1559 1559 1559 1559 1559 1559
1487 1487 1488 1488 1488 1489 1489 1491 1491 1493 1494 1495 1498 1500 1503 1507 1510 1514 1517 1520 1523 1526 1529 1531 1534 1536 1539 1541 1543 1545 1547 1549 1551 1552 1553 1555 1556 1556 1557 1558 1558 1558 1559 1559 1559 1559 1559 1559 1559
1485 1486 1487 1488 1488 1489 1490 1491 1492 1493 1494 1495 1498 1500 1503 1506 1509 1512 1516 1519 1522 1525 1527 1530 1533 1535 1538 1540 1542 1544 1546 1548 1550 1551 1552 1554 1555 1556 1556 1557 1557 1557 1558 1558 1558 1558 1558 1558 1558
1484 1486 1487 1487 1487 1488 1490 1493 1492 1492 1494 1495 1498 1500 1503 1506 1509 1511 1514 1517 1520 1523 1526 1529 1531 1534 1536 1539 1541 1543 1545 1547 1548 1550 1551 1552 1554 1554 1555 1556 1556 1556 1557 1557 1557 1557 1557 1557 1557
1484 1487 1490 1485 1486 1487 1493 1496 1491 1491 1493 1495 1497 1500 1503 1505 1508 1510 1513 1516 1519 1522 1524 1527 1529 1532 1535 1537 1539 1541 1543 1545 1547 1548 1550 1551 1552 1553 1554 1554 1555 1555 1555 1555 1556 1556 1556 1556 1555
1485 1488 1489 1486 1484 1486 1490 1493 1490 1491 1492 1494 1496 1499 1501 1504 1507 1509 1512 1515 1517 1520 1522 1525 1527 1530 1533 1535 1537 1539 1541 1543 1545 1547 1548 1549 1551 1552 1552 1553 1553 1554 1554 1554 1554 1554 1554 1554 1554
1483 1485 1485 1486 1483 1485 1489 1490 1489 1490 1491 1492 1495 1497 1500 1502 1505 1508 1510 1513 1516 1518 1521 1523 1526 1528 1531 1533 1535 1537 1539 1541 1543 1545 1546 1548 1549 1550 1551 1551 1551 1552 1552 1552 1552 1552 1552 1552 1552
1479 1481 1484 1484 1482 1486 1488 1489 1489 1489 1490 1492 1494 1496 1498 1500 1503 1506 1509 1511 1514 1516 1519 1521 1523 1526 1528 1530 1532 1534 1536 1539 1541 1542 1544 1546 1547 1548 1548 1549 1549 1550 1550 1550 1551 1550 1550 1550 1550
1477 1481 1484 1484 1482 1485 1489 1489 1488 1488 1488 1489 1491 1493 1495 1498 1501 1504 1506 1509 1511 1514 1516 1519 1521 1523 1526 1528 1531 1533 1534 1536 1538 1540 1542 1543 1544 1546 1546 1547 1547 1548 1548 1548 1548 1548 1548 1548 1548
1477 1480 1482 1484 1484 1485 1489 1493 1490 1487 1487 1488 1489 1491 1493 1495 1498 1500 1503 1506 1509 1511 1514 1516 1518 1521 1523 1526 1528 1530 1532 1534 1536 1537 1539 1541 1542 1543 1544 1545 1545 1545 1546 1546 1546 1546 1546 1546 1546
1477 1475 1478 1482 1488 1494 1492 1498 1490 1487 1487 1487 1488 1489 1491 1493 1496 1498 1501 1503 1506 1509 1511 1514 1516 1519 1521 1523 1525 1527 1529 1530 1532 1535 1537 1539 1540 1541 1542 1543 1543 1543 1544 1544 1543 1543 1543 1544 1543
1473 1473 1477 1481 1489 1494 1493 1498 1491 1485 1486 1486 1486 1487 1488 1491 1493 1495 1498 1501 1504 1506 1509 1512 1514 1516 1519 1521 1523 1525 1527 1529 1531 1533 1534 1536 1537 1539 1540 1540 1541 1541 1541 1541 1541 1541 1541 1541 1541
1472 1476 1480 1485 1490 1495 1490 1494 1490 1485 1480 1482 1484 1485 1486 1489 1491 1494 1496 1499 1501 1504 1507 1509 1511 1514 1516 1518 1521 1523 1525 1527 1528 1530 1531 1533 1534 1536 1537 1538 1538 1539 1539 1539 1539 1539 1539 1539 1539
1474 1480 1490 1493 1495 1491 1486 1489 1486 1479 1477 1478 1480 1482 1484 1487 1489 1491 1493 1496 1499 1501 1504 1506 1508 1511 1513 1516 1518 1520 1522 1524 1526 1527 1529 1530 1531 1533 1534 1535 1535 1536 1536 1537 1537 1537 1536 1536 1536
1474 1478 1486 1490 1492 1492 1486 1486 1484 1478 1476 1476 1478 1480 1483 1485 1487 1489 1491 1494 1496 1499 1501 1504 1506 1508 1511 1513 1515 1517 1519 1521 1523 1525 1526 1527 1529 1530 1531 1532 1533 1533 1534 1534 1534 1534 1534 1534 1534
1474 1478 1479 1487 1492 1493 1490 1487 1483 1478 1477 1477 1478 1480 1481 1483 1485 1487 1490 1492 1494 1497 1499 1501 1503 1506 1508 1510 1512 1514 1516 1519 1520 1522 1524 1525 1526 1527 1528 1529 1530 1530 1531 1531 1531 1531 1531 1531 1531
1471 1474 1480 1485 1489 1489 1489 1486 1483 1481 1480 1479 1479 1479 1480 1482 1484 1486 1488 1490 1492 1495 1497 1499 1502 1504 1506 1508 1510 1512 1514 1516 1518 1519 1520 1522 1523 1524 1525 1526 1527 1527 1528 1528 1528 1528 1528 1528 1527
1474 1475 1478 1483 1485 1488 1488 1487 1478 1478 1478 1479 1479 1479 1480 1481 1483 1484 1486 1489 1491 1493 1495 1498 1500 1502 1504 1506 1507 1509 1512 1513 1515 1516 1518 1519 1520 1521 1522 1523 1524 1524 1525 1525 1525 1525 1525 1524 1524
1472 1474 1477 1483 1488 1489 1489 1488 1477 1477 1477 1479 1480 1480 1481 1482 1483 1484 1486 1488 1490 1492 1494 1496 1498 1500 1502 1504 1505 1507 1509 1511 1512 1514 1515 1516 1517 1518 1519 1520 1520 1521 1522 1522 1522 1522 1521 1521 1520